SB KEPS @ AMSAT $ORB25311.1 2Line Orbital Elements 25311.AMSAT QST de W1STR AMSAT Orbital Elements for Amateur Satellites in TLE Format From Orbital Analysis Office New England Sci-Tech STEM Education Center Natick MA November 07, 2025 To all radio amateurs These element sets describe the orbits of various satellites in use by the amateur radio community. For details see: www.amsat.org/keplerian-elements-formats/ A daily update of element sets is available at: www.amsat.org/tle/daily-bulletin.txt or without bulletin text: www.amsat.org/tle/dailytle.txt AO-07 1 07530U 74089B 25310.98518156 -.00000053 00000-0 -39582-4 0 9998 2 07530 101.9976 316.8745 0012116 194.2984 225.0660 12.53693014332678 UO-11 1 14781U 84021B 25311.13503810 .00002146 00000-0 22847-3 0 9998 2 14781 97.7761 274.7316 0007207 186.6742 173.4381 14.89955457224057 AO-27 1 22825U 93061C 25311.12585974 .00000184 00000-0 87397-4 0 9992 2 22825 98.7194 13.3005 0008979 38.2250 321.9567 14.30856139675241 FO-29 1 24278U 96046B 25311.21023687 .00000008 00000-0 46979-4 0 9996 2 24278 98.5494 185.1078 0349218 312.3557 44.8491 13.53259154443141 NOAA-15 1 25338U 98030A 25311.21128100 .00000247 00000-0 11911-3 0 9997 2 25338 98.5256 332.6576 0009110 279.0704 80.9446 14.27048502429638 GO-32 1 25397U 98043D 25310.88135771 .00000115 00000-0 69806-4 0 9991 2 25397 98.9887 293.2710 0002121 115.1701 244.9697 14.24361180419682 ISS 1 25544U 98067A 25311.19511068 .00011482 00000-0 21019-3 0 9995 2 25544 51.6334 318.4356 0005155 25.9626 334.1621 15.49813276537348 NO-44 1 26931U 01043C 25310.83275713 .00000284 00000-0 13693-3 0 9995 2 26931 67.0494 99.3322 0007198 271.9426 88.0851 14.31821898258614 SO-50 1 27607U 02058C 25310.84559196 .00002082 00000-0 26826-3 0 9994 2 27607 64.5521 96.5173 0070009 303.2326 56.2082 14.82178118231496 CO-55 1 27844U 03031E 25310.96983691 .00000442 00000-0 21100-3 0 9991 2 27844 98.6778 317.3327 0010670 108.9701 251.2635 14.24131850160042 CO-57 1 27848U 03031J 25310.98934549 .00000366 00000-0 18031-3 0 9999 2 27848 98.6805 317.2421 0010379 124.9277 235.2878 14.23447148159760 RS-22 1 27939U 03042A 25311.32741008 .00002170 00000-0 34737-3 0 9993 2 27939 98.3369 124.5899 0010289 250.5688 229.0243 14.72810973182883 CO-58 1 28895U 05043F 25310.88538135 .00002684 00000-0 43849-3 0 9997 2 28895 98.2709 97.3678 0014281 186.5333 173.5689 14.71669559 69045 CO-65 1 32785U 08021C 25311.24171954 .00008809 00000-0 60152-3 0 9993 2 32785 97.8049 283.8520 0011686 67.1192 293.1267 15.06371101951741 CO-66 1 32791U 08021J 25310.93199786 .00018065 00000-0 75872-3 0 9998 2 32791 97.7416 294.8971 0004988 42.3550 317.8070 15.23497497953347 RS-30 1 32953U 08025A 25311.30001155 .00000029 00000-0 13725-3 0 9996 2 32953 82.4995 133.4675 0019940 76.5903 283.7398 12.43170303792128 NOAA-19 1 33591U 09005A 25311.20026360 .00000127 00000-0 91418-4 0 9993 2 33591 98.9811 16.6295 0012850 300.1874 59.8025 14.13424564863120 SRMSAT 1 37841U 11058D 25310.39782404 .00000518 00000-0 13763-3 0 9993 2 37841 19.9732 327.9011 0011534 273.0563 133.5974 14.11492216726300 ZACUBE-1 1 39417U 13066B 25310.80753585 .00009017 00000-0 74536-3 0 9997 2 39417 97.7985 267.3250 0041329 269.9840 89.6646 14.98497613647393 Delfi-N3xt 1 39428U 13066N 25311.25020826 .00012584 00000-0 12028-2 0 9994 2 39428 97.8316 227.3882 0078774 222.6734 136.8349 14.91040863641509 GOMX-1 1 39430U 13066Q 25311.26511937 .00003023 00000-0 46563-3 0 9996 2 39430 97.6625 160.6093 0132310 69.9828 291.5568 14.68344554637335 LO-74 1 39440U 13066AA 25310.65031761 .00008609 00000-0 83715-3 0 9996 2 39440 97.8653 254.3949 0061874 45.5839 315.0420 14.91358426643793 AO-73 1 39444U 13066AE 25310.63183636 .00012904 00000-0 89683-3 0 9990 2 39444 97.8025 273.5009 0037316 238.0768 121.6827 15.05090312646130 DTUSAT-2 1 40030U 14033W 25310.91674094 .00009670 00000-0 58499-3 0 9999 2 40030 98.0726 290.3961 0006532 275.2588 84.7895 15.10853555619076 EO-80 1 40032U 14033Y 25310.92901022 .00009686 00000-0 58486-3 0 9999 2 40032 98.0608 289.8536 0006821 196.8561 163.2442 15.10919620619053 LILACSAT-2 1 40908U 15049K 25311.35020032 .00020063 00000-0 45272-3 0 9991 2 40908 97.4951 335.6739 0007749 351.7824 8.3295 15.43230354561448 IO-86 1 40931U 15052B 25151.18580175 .00001241 00000-0 78118-4 0 9996 2 40931 6.0006 24.0987 0012733 338.8432 21.1169 14.78805930523159 Horyu-4 1 41340U 16012D 25310.97495986 .00045254 00000-0 87621-3 0 9997 2 41340 30.9935 194.7714 0004434 231.7470 128.2779 15.46451579536002 Lapan A3 1 41603U 16040E 25311.27820851 .00005945 00000-0 19967-3 0 9998 2 41603 97.1424 310.1353 0012810 90.6577 269.6133 15.31133156520832 CAS-2T 1 41847U 16066G 25311.14813260 .00001832 00000-0 26517-3 0 9998 2 41847 98.4074 24.2366 0345412 82.8244 281.2077 14.44000979472747 TechnoSat 1 42829U 17042E 25311.04888307 .00005301 00000-0 39660-3 0 9995 2 42829 97.4050 112.8092 0020183 128.6728 231.6307 15.02992477453317 AO-91 1 43017U 17073E 25310.62123243 .00016572 00000-0 79449-3 0 9994 2 43017 97.4985 177.6598 0164967 15.0200 345.5842 15.07682308431798 S-Net D 1 43186U 18014G 25311.26326497 .00009672 00000-0 54007-3 0 9990 2 43186 97.5484 212.6545 0010764 69.3573 290.8812 15.13687295425151 S-Net B 1 43187U 18014H 25311.27076301 .00009962 00000-0 55646-3 0 9990 2 43187 97.5489 212.6406 0011304 65.3256 294.9151 15.13662887425159 S-Net A 1 43188U 18014J 25311.26311638 .00009622 00000-0 53715-3 0 9993 2 43188 97.5499 212.8042 0011277 65.9091 294.3319 15.13692709425157 S-Net C 1 43189U 18014K 25311.27360777 .00010115 00000-0 56484-3 0 9998 2 43189 97.5515 212.8538 0012564 59.1335 301.1130 15.13656388423703 Ten-Koh 1 43677U 18084G 25311.06183817 .00004034 00000-0 31712-3 0 9992 2 43677 98.0675 129.2646 0009366 128.0036 232.2034 15.01444151382812 PO-101 1 43678U 18084H 25311.28060771 .00003157 00000-0 26446-3 0 9993 2 43678 98.1080 133.3184 0007912 133.8007 226.3870 14.99180898382952 QO-100 1 43700U 18090A 25311.28378271 .00000151 00000-0 00000-0 0 9999 2 43700 0.0069 274.6894 0002687 351.4616 268.5513 1.00272551 25459 MinXSS-2 1 43758U 18099A 25311.18767688 .00026525 00000-0 85694-3 0 9992 2 43758 97.4846 18.1280 0009682 350.1587 9.9464 15.32035792379975 AO-95 1 43770U 18099N 25311.14233458 .00013567 00000-0 61967-3 0 9994 2 43770 97.4728 7.7114 0010983 54.1899 306.0355 15.20650693379409 SNUSat 2 1 43782U 18099AA 25311.12432669 .00010078 00000-0 50778-3 0 9992 2 43782 97.4405 3.1554 0011109 0.1682 359.9553 15.17314090379304 SnugLite 1 43784U 18099AC 25311.13829852 .00013881 00000-0 62802-3 0 9995 2 43784 97.4220 3.0976 0003211 19.3998 340.7359 15.21017827379490 ITASat 1 1 43786U 18099AE 25311.11367923 .00008871 00000-0 47374-3 0 9991 2 43786 97.4373 2.1789 0014710 50.2021 310.0504 15.15256619379231 EAGLET 1 1 43790U 18099AJ 25311.13961600 .00006399 00000-0 39061-3 0 9997 2 43790 97.4577 1.5956 0012603 39.1726 321.0414 15.10584026378780 ESEO 1 43792U 18099AL 25311.07290706 .00003386 00000-0 25376-3 0 9991 2 43792 97.4281 352.7064 0012523 15.0900 345.0697 15.03268560378427 JO-97 1 43803U 18099AX 25311.14494214 .00017895 00000-0 71417-3 0 9999 2 43803 97.4478 9.1097 0006220 349.0281 11.0820 15.25208341379688 Suomi 100 1 43804U 18099AY 25311.10277204 .00015335 00000-0 67318-3 0 9996 2 43804 97.4539 7.8661 0010919 350.0655 10.0363 15.21982983379561 ISAT 1 43879U 18111D 25311.26054475 .00046168 00000-0 12187-2 0 9994 2 43879 97.5891 229.6398 0009588 42.1512 318.0468 15.38275350376786 UWE-4 1 43880U 18111E 25311.25989983 .00032133 00000-0 10369-2 0 9993 2 43880 97.5832 226.8699 0012782 48.3384 311.8949 15.31997507376649 Sparrow 1 43881U 18111F 25310.77321372 .00053638 00000-0 13313-2 0 9997 2 43881 97.6073 232.6844 0009326 70.8276 289.3978 15.40130997376828 Prox-1 1 44339U 19036A 25310.88084833 .00016900 00000-0 19572-2 0 9997 2 44339 23.9946 152.0153 0007311 353.0210 7.0186 14.83821543340335 Taurus 1 1 44530U 19059C 25311.27725203 .00011358 00000-0 19753-2 0 9995 2 44530 98.6224 98.2037 0008785 284.0103 76.0123 14.68268234326031 Duchifat 3 1 44854U 19089C 25310.80961551 .00279683 00000-0 17918-2 0 9991 2 44854 36.9311 106.7797 0008699 14.7673 345.3345 15.74488600326424 TO-108 1 44881U 19093C 25311.28278591 .00001641 00000-0 19368-3 0 9993 2 44881 97.7796 23.7029 0015125 96.3182 263.9756 14.85976792318455 FloripaSat 1 1 44885U 19093G 25311.24347925 .00008518 00000-0 67884-3 0 9997 2 44885 97.8075 39.2824 0011963 82.1986 278.0595 15.00539637319322 RS-44 1 44909U 19096E 25310.97290278 .00000010 00000-0 20364-5 0 9997 2 44909 82.5180 127.3788 0216658 304.0881 53.9825 12.79745226273920 SALSAT 1 46495U 20068K 25311.18542344 .00011026 00000-0 43855-3 0 9995 2 46495 97.8765 296.5680 0011139 10.4894 349.6573 15.25416410281466 CSS (TIANHE-1) 1 48274U 21035A 25311.04013910 .00032955 00000-0 38997-3 0 9999 2 48274 41.4666 233.4859 0005699 336.2635 23.7940 15.60556280258452 TUBIN 1 48900U 21059X 25311.30800925 .00225089 00000-0 96679-3 0 9993 2 48900 97.6691 134.8628 0001690 15.4556 344.6764 15.84471920243672 CUTE 1 49263U 21088D 25311.17318633 .00025999 00000-0 38226-3 0 9995 2 49263 97.4390 32.5068 0006185 52.7402 307.4415 15.55433452227767 TeikyoSat 4 1 49396U 21102B 25311.04814889 .00003475 00000-0 22706-3 0 9990 2 49396 97.3941 343.9848 0011836 344.6420 15.4448 15.08389905219227 Z-Sat 1 49399U 21102E 25311.33678307 .00007237 00000-0 37971-3 0 9998 2 49399 97.3625 348.3476 0016010 303.9821 55.9891 15.15925297219800 KOSEN 1 1 49402U 21102H 25310.57138394 .00012481 00000-0 53616-3 0 9996 2 49402 97.3527 352.2266 0013219 273.6477 86.3248 15.22738649220093 HO-113 1 50466U 21131B 25311.30887647 .00000946 00000-0 30775-3 0 9998 2 50466 98.5069 39.9083 0004897 55.5703 304.5948 14.41035341203155 SNUGLITE 2 1 52899U 22065F 25310.36742968 .00001849 00000-0 36441-3 0 9997 2 52899 98.1904 91.1157 0007612 12.0933 348.0451 14.63675767178399 UmKA 1 (RS40S) 1 57172U 23091G 25311.27404388 .00009592 00000-0 48128-3 0 9996 2 57172 97.5390 5.9009 0014135 166.2735 193.8885 15.17443177130314 CubeBel-2 (EU11S) 1 57175U 23091K 25311.25084412 .00017546 00000-0 75261-3 0 9995 2 57175 97.5387 8.0636 0011546 169.5718 190.5760 15.22736282130452 ENSO 1 58470U 23185J 25310.71288499 .02412422 23797-5 16177-2 0 9996 2 58470 97.3393 33.6303 0008707 270.8505 89.1785 16.16818727108584 SONATE-2 1 59112U 24043Q 25310.80782573 .00034067 00000-0 78596-3 0 9990 2 59112 97.5322 85.7955 0008911 296.5826 63.4507 15.42448587 93436 MO-122 1 60209U 24125G 25311.09611278 .00028755 00000-0 64444-3 0 9999 2 60209 97.2562 161.5108 0014892 320.4313 39.5847 15.43270728 75100 GRBBeta 1 60237U 24128C 25311.26038357 .00007614 00000-0 54036-3 0 9990 2 60237 61.9910 273.6243 0057156 89.1089 271.6551 15.04221665 72853 Curium One 1 60242U 24128H 25311.26448478 .00013794 00000-0 87324-3 0 9997 2 60242 61.9804 269.2868 0057079 85.6361 275.1251 15.07914567 72931 ROBUSTA-3A 1 60243U 24128J 25311.25341200 .00013917 00000-0 89567-3 0 9990 2 60243 61.9878 270.7098 0056928 83.2185 277.5381 15.07314992 72919 CatSat 1 60246U 24125J 25310.51900932 .00046947 00000-0 12634-2 0 9990 2 60246 97.2376 158.3693 0034718 279.1374 80.5944 15.37098216 72950 HYPERVIEW-1G (RS66S) 1 61772U 24199AP 25311.27242831 .00043004 00000-0 93577-3 0 9994 2 61772 97.3247 180.3527 0012272 20.2727 339.9006 15.44103679100132 AO-123 1 61781U 24199AY 25311.32352581 .00014477 00000-0 48453-3 0 9999 2 61781 97.3283 177.1794 0016046 28.6826 331.5294 15.30941540 99920 ZIMSAT 2 1 61783U 24199BA 25311.26449002 .00130117 00000-0 16031-2 0 9995 2 61783 97.3168 182.8389 0009661 20.1594 340.0043 15.59722237103453 HADES-R (SO-124) 1 62690U 25009CK 25311.25907845 .00119252 00000-0 23013-2 0 9992 2 62690 97.3950 32.8301 0003176 259.1703 100.9189 15.47375888 45271 HYDRA-T 1 62692U 25009CM 25311.20141421 .00129387 00000-0 24222-2 0 9992 2 62692 97.3947 32.9068 0003070 253.2332 106.8582 15.48215932 45272 JINJUSat 1B 1 63210U 25052A 25311.17659771 .00016893 00000-0 67803-3 0 9995 2 63210 97.4207 203.5939 0005109 126.1858 233.9853 15.25033078 36163 NUSHSAT 1 1 63211U 25052B 25311.25901759 .00026011 00000-0 10165-2 0 9992 2 63211 97.4193 203.7548 0004854 128.7646 231.4027 15.25839166 36185 TEVEL2-4 1 63213U 25052D 25311.24568567 .00024287 00000-0 96543-3 0 9997 2 63213 97.4112 203.3643 0003659 132.9787 227.1758 15.25287926 36178 TEVEL2-5 1 63214U 25052E 25311.24962941 .00024134 00000-0 96099-3 0 9999 2 63214 97.4113 203.3600 0003601 135.6786 224.4741 15.25232116 36172 TEVEL2-6 1 63215U 25052F 25311.25582685 .00023260 00000-0 92772-3 0 9997 2 63215 97.4118 203.3558 0003619 134.9388 225.2144 15.25183059 36176 TEVEL2-1 1 63217U 25052H 25311.22571055 .00022678 00000-0 91262-3 0 9990 2 63217 97.4088 203.1658 0003229 147.5361 212.6076 15.24889956 36162 TEVEL2-3 1 63218U 25052J 25311.22534406 .00022269 00000-0 89589-3 0 9995 2 63218 97.4091 203.1693 0003197 147.8643 212.2790 15.24904990 36161 TEVEL2-2 1 63219U 25052K 25311.22649406 .00022854 00000-0 91968-3 0 9997 2 63219 97.4090 203.1666 0003205 148.3295 211.8136 15.24889852 36168 TEVEL2-9 1 63237U 25052AD 25311.22139873 .00021219 00000-0 89026-3 0 9995 2 63237 97.4154 202.9165 0006155 190.1165 169.9949 15.23486833 36131 TEVEL2-7 1 63238U 25052AE 25311.16642251 .00016200 00000-0 68349-3 0 9997 2 63238 97.4158 202.8427 0006156 190.3100 169.8011 15.23354906 36121 TEVEL2-8 1 63239U 25052AF 25311.23712140 .00023336 00000-0 98294-3 0 9991 2 63239 97.4152 202.8989 0006150 190.8983 169.2121 15.23334443 36138 HYDRA-W 1 63490U 25052BL 25311.25088178 .00073274 00000-0 21125-2 0 9993 2 63490 97.4077 204.6824 0007440 173.8912 186.2423 15.35418373 36263 HADES-ICM (SO-125) 1 63492U 25052BN 25310.22970198 .00077865 00000-0 23518-2 0 9991 2 63492 97.4091 203.4741 0007570 185.7464 174.3693 15.33925454 36093 Dragonfly 1 65729U 98067XH 25311.25892288 .00112782 00000-0 13093-2 0 9994 2 65729 51.6307 315.8658 0004129 88.5228 271.6239 15.60897548 7604 RSP-03 1 65732U 98067XL 25311.27548542 .00093671 00000-0 11422-2 0 9990 2 65732 51.6307 315.9764 0006050 67.9384 292.2251 15.59687261 7617 GHS-01 1 65733U 98067XM 25311.24788368 .00128889 00000-0 14450-2 0 9994 2 65733 51.6313 315.7934 0004561 86.4594 273.6921 15.61733196 7615 BOTAN 1 65942U 98067XP 25311.26661794 .00083017 00000-0 12070-2 0 9990 2 65942 51.6320 317.4148 0004757 34.2370 325.8927 15.55038987 4332 /EX